Погода в Нукусе

Погода в Нукусе : погода сейчас, прогноз погоды и архив. Всё, что Вы хотите узнать о погоде в Нукусе!

Поиск расширенной информации на нашем сайте:

Другие новости

Новости СМИ2

Главная страница сайта

Новости сайта

03.07.2017

Напоминаем, что на нашем специализированном сайте Метеоцентр.Азия вы можете получить высокодетализированные автоматические прогнозы погоды по пунктам России, СНГ и мира в авиационном формате (включающие направление и скорость ветра, видимость, явления погоды, количество и форму облачности, нижнюю и верхнюю границу облачности).

Рекомендуем: Дома и земельные участки: оформление прав на земельный участок.

Погода в Нукусе - сегодня

Время (UTC), дата Ветер
(°,м/с) 
Видим.   Явления Облачность Т
(°С)
Тd
(°С)
f(%) Тe
(°С)
Pmin
(гПа)
dP
(гПа)
Po
(мм)
O2
(г/м3)
Тmin Tmax R s Состояние
почвы
21 19.05.18 тихо ()   20000 м    ясно 
+18.2 +8.1 52 +18  1018  -0.4  757  285           
00 20.05.18 тихо ()   20000 м    4/0 средняя 
[Ac cast]
+15.5 +8.2 62 +16  1018.4  0.4  757  287           
03 20.05.18 090 (В) 20000 м    3/0 средняя 
[Ac trans]
+24 +4.6 28 +24  1019.1  0.9             
06 20.05.18 110 (В) 20000 м    1/0 верхняя 
[Ci fib]
+30 -0 14 +30  1018.8  758  275  +15.2         
09 20.05.18 200 (Ю) 20000 м    5/3 1500 м средняя 
[Cu hum|Ac trans]
+31.5 -0.2 13 +32  1017.8  -1  757  273           
12 20.05.18 320 (СЗ) 20000 м    4/0 средняя 
[Ac trans]
+32 -0.7 12 +32  1016.8  -1  756  273           
15 20.05.18 030 (СВ) 20000 м    4/0 средняя 
[Ac trans]
+30.1 -0.2 14 +30  1016.6  -0.2  756  274    +33.1       
18 20.05.18 350 (С) 20000 м    1/0 средняя 
[Ac trans]
+22.6 +5 32 +23  1017.8  0.9  757  281    +33.1       
21 20.05.18 350 (С) 20000 м    3/0 средняя 
[Ac trans]
+20.8 +5.8 38 +21  1017.1  -0.7  756  282           
00 21.05.18 010 (С) 20000 м    ясно 
+17.2 +6.5 49 +19  1017.6  0.3  756  286    +1.3       
03 21.05.18 030 (СВ) 20000 м    ясно 
+22 +2.7 28 +22  1018.5  1.1  757  282           
06 21.05.18 360 (С) 20000 м    ясно 
+30 -4.4 10 +30  1017.6  -0.6  757  275  +16.4         
09 21.05.18 360 (С) 11  20000 м    1/0 верхняя 
[Ci fib]
+31.8 -9.8 6 +32  1016.3  -1.3  756  274           
12 21.05.18 340 (С) 20000 м    1/0 верхняя 
[Ci ing]
+32.4 -9.4 6 +32  1015.6  -0.7  755  273           
15 21.05.18 350 (С) 20000 м    1/0 верхняя 
[Ci fib]
+28.8 -8.2 8 +29  1015.8  755  276    +32.7       
18 21.05.18 340 (С) 20000 м    ясно 
+18.9 -1.9 24 +20  1016.9  0.8  756  285    +32.7       
21 21.05.18 340 (С) 20000 м    ясно 
+16.5 +0.2 33 +17  1016.3  -0.6  755  287           
00 22.05.18 340 (С) 20000 м    ясно 
+14.9 -0.2 36 +15  1016.5  0.1  756  289           
03 22.05.18 020 (С) 20000 м    ясно 
+20.1 -5 18 +20  1017.1  0.9  756  284           
06 22.05.18 330 (СЗ) 20000 м    ясно 
+30.1 -4.7 10 +30  1017.2  0.4  757  275  +14.1         
09 22.05.18 310 (СЗ) 20000 м    ясно 
+32.5 -5.7 8 +33  1017.1  -0.1  756  273           
12 22.05.18 360 (С) 20000 м    3/0 верхняя 
[Ci fib]
+33.4 -10.7 5 +33  1016.4  -0.7  756  272           
15 22.05.18 320 (СЗ) 20000 м    5/0 верхняя 
[Ci ing]
+29.6 -3.6 11 +30  1016.6  756  275    +33.8       
18 22.05.18 300 (СЗ) 20000 м    5/0 верхняя 
[Ci ing]
+23.3 -4.4 15 +23  1017.3  0.6  756  281    +33.8       
21 22.05.18 290 (З) 20000 м    3/0 верхняя 
[Ci ing]
+18.6 +0.9 30 +20  1017.9  0.4  757  285           
Время (UTC), дата Ветер
(°,м/с) 
Видим.   Явления Облачность Т
(°С)
Тd
(°С)
f(%) Тe
(°С)
Pmin
(гПа)
dP
(гПа)
Po
(мм)
O2
(г/м3)
Тmin Tmax R s Состояние
почвы

Для получения пояснительной информации подведите курсор к названию столбца.

ПОГОДА в Нукусе - архив

Всё, что Вы хотите узнать о погоде в Нукусе - удобно и подробно!

Выберите нужную дату (начиная с 1 января 2015* года) и нажмите кнопку "Найти".
Будут отображены архивные сводки погоды по пункту Нукус, начиная с указанной даты.


Отображать данные в формате CSV (для использования в таблицах Excel)


Внимание! Наш архив погоды предназначен исключительно для личного некоммерческого использования в познавательных целях. Если Вам необходимы официальные справки о состоянии погоды (для производственных, юридических, коммерческих и т.п. целей), обращайтесь в органы Росгидромета.

*Примечание: данная дата относится к архиву по метеостанциям СССР (Россия, СНГ, Балтия).
Архив по метеостанциям Зарубежной Европы и Азии (кроме Китая) хранится 10 дней, по другим регионам земного шара (Китай, Африка, Америка, Австралия, Океания) - 1 день.

Нукус - район местоположения метеостанции


Название, широта, долгота, высота метеостанции:
Нукус 42.4°ш. 59.6°д. 77 м над ур. моря [Узбекистан]

Дополнительная информация

В oтличие oт бoльшинства пoгoдных сайтoв мы публикуем пoдрoбную метеoинфoрмацию в детальнoм прoфессиoнальнoм фoрмате.

Характеристики температуры и влажнoсти вoздуха измеряются на высoте 2 м в тени вдали oт зданий и деревьев.
Скoрoсть ветра измеряется на высoте 10 м (на урoвне рoста челoвека скoрoсть ветра ниже в 1.5-2 раза). Если метеoстанция нахoдится в гoрoде или в лесу, тo скoрoсть ветра занижена на 2-4 м/с пo сравнению с oткрытым местoм. Скoрoсть ветра над акватoриями крупных рек и oзёр, а также на вершинах хoлмoв на 2-5 м/с выше, чем в oбычных услoвиях.
Атмoсфернoе давление в разных тoчках местнoсти мoжет значительнo oтличаться oт давления на метеoстанции, в зависимoсти oт услoвий рельефа (при пoдъёме на 10 м давление пoнижается примернo на 1 мм рт.ст.).